Radioactive Concentration measured by Seawater Radiation Monitor near Fukushima Daiichi Nuclear Power Station
Date,Time,Cs137(Bq/L),Cs134(Bq/L),Total β(Bq/L)
2020/06/15,00:00,ND,ND,15
2020/06/15,00:10,ND,ND,16
2020/06/15,00:20,ND,ND,17
2020/06/15,00:30,ND,ND,18
2020/06/15,00:40,ND,ND,18
2020/06/15,00:50,ND,ND,16
2020/06/15,01:00,ND,ND,14
2020/06/15,01:10,ND,ND,14
2020/06/15,01:20,ND,ND,13
2020/06/15,01:30,ND,ND,15
2020/06/15,01:40,ND,ND,16
2020/06/15,01:50,ND,ND,18
2020/06/15,02:00,ND,ND,19
2020/06/15,02:10,ND,ND,19
2020/06/15,02:20,ND,ND,17
2020/06/15,02:30,ND,ND,17
2020/06/15,02:40,ND,ND,17
2020/06/15,02:50,ND,ND,16
2020/06/15,03:00,ND,ND,12
2020/06/15,03:10,ND,ND,13
2020/06/15,03:20,ND,ND,13
2020/06/15,03:30,ND,ND,12
2020/06/15,03:40,ND,ND,9.5
2020/06/15,03:50,ND,ND,9.3
2020/06/15,04:00,ND,ND,10
2020/06/15,04:10,0.052,ND,10
2020/06/15,04:20,0.062,ND,11
2020/06/15,04:30,0.053,ND,9.5
2020/06/15,04:40,0.059,ND,10
2020/06/15,04:50,0.057,ND,8.8
2020/06/15,05:00,0.063,ND,ND
2020/06/15,05:10,0.052,ND,ND
2020/06/15,05:20,0.055,ND,8.8
2020/06/15,05:30,0.056,ND,ND
2020/06/15,05:40,0.058,ND,9.2
2020/06/15,05:50,0.076,ND,12
2020/06/15,06:00,0.062,ND,15
2020/06/15,06:10,0.076,ND,13
2020/06/15,06:20,0.063,ND,14
2020/06/15,06:30,0.059,ND,16
2020/06/15,06:40,0.062,ND,13
2020/06/15,06:50,0.053,ND,12
2020/06/15,07:00,0.057,ND,12
2020/06/15,07:10,ND,ND,14
2020/06/15,07:20,ND,ND,13
2020/06/15,07:30,ND,ND,11
2020/06/15,07:40,ND,ND,15
2020/06/15,07:50,ND,ND,17
2020/06/15,08:00,0.049,ND,18
2020/06/15,08:10,0.056,ND,18
2020/06/15,08:20,0.056,ND,18
2020/06/15,08:30,0.067,ND,19
2020/06/15,08:40,0.062,ND,19
2020/06/15,08:50,0.052,ND,17
2020/06/15,09:00,0.050,ND,15
2020/06/15,09:10,0.051,ND,13
2020/06/15,09:20,0.051,ND,12
2020/06/15,09:30,ND,ND,11
2020/06/15,09:40,ND,ND,9.0
2020/06/15,09:50,ND,ND,12
2020/06/15,10:00,ND,ND,12
2020/06/15,10:10,ND,ND,13
2020/06/15,10:20,ND,ND,17
2020/06/15,10:30,ND,ND,18
2020/06/15,10:40,0.055,ND,21
2020/06/15,10:50,0.057,ND,17
2020/06/15,11:00,0.052,ND,20
2020/06/15,11:10,0.053,ND,18
2020/06/15,11:20,ND,ND,15
2020/06/15,11:30,0.055,ND,11
2020/06/15,11:40,0.050,ND,ND
2020/06/15,11:50,ND,ND,11
2020/06/15,12:00,0.052,ND,10
2020/06/15,12:10,ND,ND,12
2020/06/15,12:20,ND,ND,15
2020/06/15,12:30,ND,ND,17
2020/06/15,12:40,ND,ND,17
2020/06/15,12:50,ND,ND,18
2020/06/15,13:00,ND,ND,17
2020/06/15,13:10,ND,ND,18
2020/06/15,13:20,ND,ND,15
2020/06/15,13:30,ND,ND,17
2020/06/15,13:40,ND,ND,18
2020/06/15,13:50,ND,ND,17
2020/06/15,14:00,ND,ND,18
2020/06/15,14:10,ND,ND,17
2020/06/15,14:20,ND,ND,17
2020/06/15,14:30,ND,ND,14
2020/06/15,14:40,ND,ND,17
2020/06/15,14:50,ND,ND,17
2020/06/15,15:00,ND,ND,13
2020/06/15,15:10,ND,ND,13
2020/06/15,15:20,ND,ND,13
2020/06/15,15:30,ND,ND,15
2020/06/15,15:40,ND,ND,10
2020/06/15,15:50,ND,ND,ND
2020/06/15,16:00,ND,ND,11
2020/06/15,16:10,ND,ND,12
2020/06/15,16:20,ND,ND,11
2020/06/15,16:30,ND,ND,10
2020/06/15,16:40,0.058,ND,12
2020/06/15,16:50,0.056,ND,14
2020/06/15,17:00,0.055,ND,12
2020/06/15,17:10,ND,ND,11
2020/06/15,17:20,0.054,ND,14
2020/06/15,17:30,ND,ND,14
2020/06/15,17:40,ND,ND,14
2020/06/15,17:50,ND,ND,14
2020/06/15,18:00,ND,ND,16
2020/06/15,18:10,ND,ND,18
2020/06/15,18:20,ND,ND,16
2020/06/15,18:30,ND,ND,17
2020/06/15,18:40,ND,ND,19
2020/06/15,18:50,ND,ND,18
2020/06/15,19:00,ND,ND,18
2020/06/15,19:10,ND,ND,16
2020/06/15,19:20,ND,ND,15
2020/06/15,19:30,ND,ND,14
2020/06/15,19:40,ND,ND,14
2020/06/15,19:50,ND,ND,12
2020/06/15,20:00,ND,ND,12
2020/06/15,20:10,ND,ND,12
2020/06/15,20:20,ND,ND,11
2020/06/15,20:30,ND,ND,10
2020/06/15,20:40,ND,ND,9.7
2020/06/15,20:50,ND,ND,11
2020/06/15,21:00,ND,ND,11
2020/06/15,21:10,ND,ND,14
2020/06/15,21:20,ND,ND,16
2020/06/15,21:30,ND,ND,18
2020/06/15,21:40,ND,ND,17
2020/06/15,21:50,ND,ND,16
2020/06/15,22:00,ND,ND,16
2020/06/15,22:10,ND,ND,14
2020/06/15,22:20,ND,ND,14
2020/06/15,22:30,ND,ND,13
2020/06/15,22:40,ND,ND,12
2020/06/15,22:50,ND,ND,12
2020/06/15,23:00,ND,ND,13
2020/06/15,23:10,ND,ND,14
2020/06/15,23:20,ND,ND,14
2020/06/15,23:30,ND,ND,13
2020/06/15,23:40,ND,ND,16
2020/06/15,23:50,ND,ND,16
